Torna al catalogo

COSMOS 2189

AttivoMilitareLEO
NORAD 21978·PAYLOAD·🇷🇺 Russia

Lanciato Jun 3, 1992 da Plesetsk Cosmodrome

Loading…

Prossimi Passaggi (prossime 24 ore)

TLE

AggiornatoSource: Space-Track

Epoca: Sep 14, 2026, 08:53 UTC

1 21978U 92030C   26257.37061744 -.00000030  00000-0 -84751-4 0  9999
2 21978  74.0038  43.2012 0040986 265.8011 119.1053 12.54030484569329

Traccia COSMOS 2189 in tempo reale con AllMySat

Download on the App Store